This demonstration page uses our WeatherBlox Daily Observations layout. Learn more.

Left ArrowRight Arrow

34.74481, -87.66753

Hourly Observations for May 15, 2017

Temp ( °F °C ) Dew Point ( °F °C ) Humidity (%) Winds ( mph kmh ) Pressure ( in mb ) Visibility ( mi km ) Precip ( " mm )
12:53 am 00:53 Clear 60 15.6 56 13.3 86 86 Calm 29.97 1015 10 16 0.00 0.00
1:53 am 01:53 Clear 59 15 55 12.8 87 87 Calm 29.97 1015 10 16 0.00 0.00
2:53 am 02:53 Clear 58 14.4 55 12.8 90 90 Calm 29.97 1015 10 16 0.00 0.00
3:53 am 03:53 Clear 57 13.9 54 12.2 90 90 Calm 29.98 1015 10 16 0.00 0.00
4:53 am 04:53 Clear 56 13.3 53 11.7 90 90 Calm 29.99 1016 8 13 0.00 0.00
5:22 am 05:22 Clear with Mist and Fog 54 12.2 51 10.6 90 90 Calm 30.03 1017 2 2 0.00 0.00
5:38 am 05:38 Clear 54 12.2 51 10.6 90 90 Calm 30.03 1017 9 14 0.00 0.00
5:53 am 05:53 Sunny with Mist and Fog 54 12.2 52 11.1 93 93 Calm 30.01 1016 3 5 0.00 0.00
6:53 am 06:53 Sunny 59 15 55 12.8 87 87 Calm 30.03 1017 10 16 0.00 0.00
7:53 am 07:53 Sunny 64 17.8 58 14.4 81 81 Calm 30.05 1018 10 16 0.00 0.00
8:53 am 08:53 Sunny 71 21.7 58 14.4 63 63 Calm 30.05 1018 10 16 0.00 0.00
9:53 am 09:53 Sunny 76 24.4 56 13.3 50 50 Calm 30.04 1017 10 16 0.00 0.00
10:53 am 10:53 Sunny 81 27.2 53 11.7 38 38 NNW 5 7 30.04 1017 10 16 0.00 0.00
11:53 am 11:53 Sunny 81 27.2 52 11.1 37 37 SE 7 11 30.02 1017 10 16 0.00 0.00
12:53 pm 12:53 Sunny 82 27.8 54 12.2 38 38 Calm 30.01 1016 10 16 0.00 0.00
1:53 pm 13:53 Sunny 85 29.4 53 11.7 33 33 Calm 30.00 1016 10 16 0.00 0.00
2:53 pm 14:53 Sunny 87 30.6 53 11.7 31 31 Calm 29.99 1016 10 16 0.00 0.00
3:53 pm 15:53 Sunny 86 30 55 12.8 35 35 WSW 8 13 29.97 1015 10 16 0.00 0.00
4:53 pm 16:53 Sunny 87 30.6 55 12.8 34 34 W 7 11 29.97 1015 10 16 0.00 0.00
5:53 pm 17:53 Sunny 85 29.4 55 12.8 36 36 WSW 6 9 29.98 1015 10 16 0.00 0.00
6:53 pm 18:53 Sunny 82 27.8 55 12.8 40 40 SW 5 7 29.97 1015 10 16 0.00 0.00
7:53 pm 19:53 Clear 76 24.4 56 13.3 50 50 Calm 29.98 1015 10 16 0.00 0.00
8:53 pm 20:53 Clear 67 19.4 58 14.4 73 73 Calm 29.98 1015 10 16 0.00 0.00
9:53 pm 21:53 Clear 66 18.9 58 14.4 75 75 SE 3 6 29.98 1015 10 16 0.00 0.00
10:53 pm 22:53 Clear 66 18.9 59 15 78 78 Calm 30.00 1016 10 16 0.00 0.00
11:53 pm 23:53 Clear 62 16.7 57 13.9 84 84 Calm 29.99 1016 10 16 0.00 0.00

Powered by AerisWeather